Weather History for Toronto City ON, Ontario

Change the Weather History Date:

Tuesday, August 13, 2013

  Actual Average Record
Temperature  
Mean Temperature 64 °F -  
Max Temperature 71 °F - - ()
Min Temperature 56 °F - - ()
Degree Days  
Heating Degree Days 1    
Growing Degree Days 14 (Base 50)    
Moisture  
Dew Point 54 °F    
Average Humidity 67    
Maximum Humidity 92    
Minimum Humidity 45    
Precipitation  
Precipitation 0.00 in - - ()
Sea Level Pressure  
Sea Level Pressure 29.82 in    
Wind  
Wind Speed - ()    
Max Wind Speed -    
Max Gust Speed -    
T = Trace of Precipitation, MM = Missing Value Source: Averaged Metar Reports

Daily Weather History Graph

Daily Weather History Graph

Search for Another Location

Airport:

Trip Planner

Search our weather history database for the weather conditions in past years. The results will help you decide how hot, cold, wet, or windy it might be!

Date:

Astronomy

Aug. 13, 2013 Rise Set
Actual Time 6:20 AM EDT 8:23 PM EDT
Civil Twilight 5:48 AM EDT 8:55 PM EDT
Nautical Twilight 5:10 AM EDT 9:33 PM EDT
Astronomical Twilight 4:28 AM EDT 10:15 PM EDT
Moon 1:28 PM EDT (8/13) 11:42 PM EDT (8/13)
Length of Visible Light 15h 06m
Length of Day
14h 03m
Waxing Crescent, 41% of the Moon is Illuminated
Aug 13
Waxing Crescent
Aug 14
First Quarter
Aug 20
Full
Aug 28
Last Quarter
Sep 5
New

Hourly Weather History & Observations

Time (EDT) Temp. Dew Point Humidity Pressure Visibility Wind Dir Wind Speed Gust Speed Precip Events Conditions
12:00 AM 67.1 °F 62.2 °F 84% 29.84 in - North - - N/A   Unknown
1:00 AM 67.5 °F 63.1 °F 86% 29.81 in - North - - N/A   Unknown
2:00 AM 67.3 °F 62.6 °F 85% 29.81 in - North - - N/A   Unknown
3:00 AM 67.1 °F 62.4 °F 85% 29.78 in - North - - N/A   Unknown
4:00 AM 65.8 °F 61.5 °F 86% 29.76 in - North - - N/A   Unknown
5:00 AM 64.4 °F 61.7 °F 91% 29.76 in - North - - N/A   Unknown
6:00 AM 64.4 °F 61.9 °F 92% 29.77 in - North - - N/A   Unknown
7:00 AM 64.9 °F 62.1 °F 90% 29.78 in - North - - N/A   Unknown
8:00 AM 67 °F 59 °F 68% 29.78 in - Calm Calm - -  
8:00 AM 66.9 °F 58.8 °F 75% 29.78 in - North - - N/A   Unknown
9:00 AM 67.5 °F 59.0 °F 74% 29.78 in - North - - N/A   Unknown
10:00 AM 69.8 °F 56.7 °F 63% 29.78 in - North - - N/A   Unknown
11:00 AM 68.5 °F 54.7 °F 61% 29.80 in - North - - N/A   Unknown
12:00 PM 69.8 °F 50.7 °F 51% 29.81 in - North - - N/A   Unknown
1:00 PM 70.0 °F 49.6 °F 48% 29.81 in - North - - N/A   Unknown
2:00 PM 70.5 °F 48.9 °F 46% 29.82 in - North - - N/A   Unknown
3:00 PM 67.5 °F 45.3 °F 45% 29.83 in - North - - N/A   Unknown
4:00 PM 66.4 °F 47.3 °F 50% 29.84 in - North - - N/A   Unknown
5:00 PM 64.2 °F 46.6 °F 53% 29.86 in - North - - N/A   Unknown
6:00 PM 63.0 °F 45.0 °F 52% 29.87 in - North - - N/A   Unknown
7:00 PM 61.3 °F 45.7 °F 56% 29.88 in - North - - N/A   Unknown
8:00 PM 61 °F 46 °F 47% 29.89 in - Calm Calm - -  
8:00 PM 60.8 °F 46.0 °F 58% 29.89 in - North - - N/A   Unknown
9:00 PM 59.0 °F 47.8 °F 66% 29.89 in - North - - N/A   Unknown
10:00 PM 57.2 °F 47.5 °F 70% 29.90 in - North - - N/A   Unknown
11:00 PM 56.8 °F 47.5 °F 71% 29.89 in - North - - N/A   Unknown